Temp
-0 -1 -1 -1 -2 -2 -2 -2 -3 -3 -3 -3 -3 -3 -3 -3 -3 -3 -3 -3 -3 -3 -4 -4 -4 -5 -6
-1 -1 -2 -2 -2 -2 -3 -3 -3 -4 -4 -4 -3 -3 -3 -4 -4 -4 -4 -4 -4 -4 -5 -5 -6 -7 -7
-1 -2 -2 -3 -3 -3 -4 -4 -4 -4 -4 -4 -4 -4 -4 -4 -5 -5 -5 -5 -5 -6 -6 -7 -7 -7 -8
-2 -2 -3 -3 -3 -4 -4 -5 -5 -5 -5 -5 -5 -5 -5 -5 -5 -6 -6 -6 -6 -7 -7 -7 -8 -9 -10
-3 -3 -3 -4 -4 -4 -5 -5 -5 -5 -5 -5 -5 -6 -6 -6 -6 -7 -7 -7 -7 -8 -8 -8 -9 -10 -10
-3 -3 -4 -4 -5 -5 -5 -6 -6 -6 -6 -6 -6 -6 -7 -7 -7 -7 -8 -8 -8 -8 -9 -9 -10 -11 -11
-4 -4 -4 -5 -6 -6 -6 -6 -6 -6 -6 -6 -7 -7 -7 -8 -8 -8 -9 -9 -9 -10 -10 -11 -11 -12 -13
-4 -4 -5 -6 -6 -7 -7 -7 -7 -6 -7 -7 -8 -8 -8 -8 -9 -9 -9 -10 -10 -11 -11 -11 -12 -13 -14
-5 -5 -6 -6 -7 -7 -7 -7 -7 -7 -7 -8 -8 -8 -9 -9 -9 -10 -10 -11 -11 -12 -12 -13 -13 -13 -13
-6 -6 -7 -7 -7 -7 -7 -8 -8 -8 -8 -8 -8 -8 -9 -10 -10 -11 -11 -12 -12 -13 -13 -13 -13 -13 -13
-6 -7 -8 -7 -8 -8 -8 -8 -8 -9 -9 -10 -9 -9 -10 -10 -11 -12 -12 -12 -13 -13 -13 -14 -15 -15 -14
-7 -8 -8 -8 -8 -8 -8 -9 -10 -11 -11 -9 -10 -10 -10 -11 -11 -12 -13 -13 -13 -13 -13 -14 -15 -15 -16
-9 -9 -8 -9 -9 -9 -9 -9 -10 -11 -10 -10 -11 -11 -12 -12 -12 -13 -13 -13 -14 -14 -14 -15 -15 -16 -15
-8 -9 -9 -9 -9 -9 -9 -10 -12 -11 -11 -11 -11 -12 -12 -13 -13 -14 -14 -14 -13 -14 -14 -15 -16 -16 -17
-9 -9 -9 -9 -10 -10 -10 -12 -11 -11 -11 -12 -12 -13 -13 -14 -14 -14 -14 -14 -14 -15 -15 -15 -16 -16 -17
-9 -10 -10 -10 -10 -10 -12 -11 -11 -11 -12 -12 -12 -13 -13 -14 -14 -14 -14 -14 -15 -15 -16 -15 -15 -16 -17
-9 -10 -10 -10 -11 -12 -12 -12 -12 -12 -12 -13 -13 -13 -13 -14 -14 -15 -15 -15 -15 -16 -16 -16 -16 -17 -17
Height
3178 3178 3178 3177 3175 3173 3171 3169 3165 3162 3157 3153 3149 3144 3140 3135 3131 3126 3121 3116 3110 3105 3099 3093 3086 3079 3073
3174 3174 3173 3172 3170 3169 3166 3164 3160 3156 3152 3147 3143 3138 3134 3130 3125 3120 3115 3110 3104 3097 3090 3085 3077 3070 3063
3169 3168 3167 3167 3165 3164 3161 3158 3154 3150 3145 3141 3137 3132 3127 3123 3119 3114 3108 3103 3097 3090 3083 3076 3068 3060 3054
3164 3163 3162 3162 3160 3158 3155 3152 3148 3143 3140 3135 3131 3126 3122 3118 3113 3108 3101 3095 3088 3081 3074 3066 3059 3054 3047
3159 3159 3157 3156 3154 3152 3149 3147 3142 3137 3134 3129 3126 3121 3117 3112 3107 3101 3095 3088 3082 3074 3066 3059 3052 3046 3040
3154 3153 3151 3150 3148 3145 3143 3140 3137 3133 3128 3124 3120 3116 3111 3106 3101 3095 3089 3082 3075 3067 3060 3052 3044 3038 3031
3148 3147 3145 3143 3142 3140 3137 3134 3131 3128 3124 3119 3115 3111 3106 3101 3095 3090 3084 3077 3070 3062 3055 3046 3038 3032 3025
3141 3140 3139 3137 3136 3134 3131 3128 3125 3121 3118 3115 3112 3106 3102 3096 3091 3085 3079 3072 3065 3058 3050 3041 3032 3026 3020
3134 3133 3132 3130 3130 3128 3124 3121 3119 3116 3113 3109 3107 3104 3099 3094 3088 3081 3073 3067 3061 3054 3045 3037 3028 3020 3015
3127 3126 3125 3124 3123 3121 3118 3115 3112 3110 3107 3104 3100 3097 3094 3089 3081 3076 3069 3062 3056 3049 3041 3033 3022 3014 3006
3120 3118 3118 3118 3117 3114 3111 3109 3106 3103 3101 3099 3094 3089 3085 3079 3075 3069 3062 3056 3050 3044 3037 3027 3016 3006 2998
3112 3112 3111 3112 3109 3107 3105 3102 3100 3097 3095 3092 3088 3083 3077 3073 3066 3062 3057 3050 3043 3036 3030 3021 3013 3003 2994
3104 3105 3107 3105 3103 3101 3098 3096 3094 3093 3090 3086 3082 3078 3072 3065 3059 3054 3046 3043 3035 3028 3023 3015 3006 2998 2989
3098 3100 3099 3097 3096 3093 3091 3090 3090 3088 3085 3081 3078 3074 3069 3062 3054 3050 3044 3035 3031 3022 3016 3011 3003 2993 2985
3092 3092 3091 3090 3089 3087 3086 3086 3085 3083 3080 3076 3073 3069 3063 3057 3051 3045 3038 3032 3025 3017 3011 3006 3000 2988 2980
3085 3085 3085 3084 3083 3082 3082 3082 3080 3077 3075 3072 3068 3065 3062 3058 3047 3038 3036 3028 3021 3014 3004 2996 2991 2985 2977
3079 3079 3079 3079 3079 3078 3078 3077 3075 3073 3070 3067 3062 3058 3054 3049 3047 3035 3028 3022 3014 3007 2998 2991 2982 2977 2969
Wind_Speed
18 18 19 20 22 23 25 27 30 34 37 35 33 33 32 30 30 32 34 35 37 39 40 42 44 47 46
19 20 21 22 23 25 27 29 32 37 37 34 33 34 32 31 32 34 35 37 39 41 43 44 46 46 47
21 21 22 23 25 27 29 31 36 37 35 34 33 33 32 33 34 35 37 39 41 42 44 45 47 48 48
22 23 24 25 26 28 29 32 38 35 33 33 33 32 32 34 35 36 38 40 42 44 46 48 48 46 45
23 24 26 27 28 30 31 35 36 33 33 32 31 30 31 33 35 37 39 40 42 44 46 48 48 46 45
25 26 27 30 31 31 33 36 32 31 31 30 30 29 32 33 35 38 40 41 42 44 46 48 48 46 45
27 28 34 35 32 34 36 34 31 31 29 27 28 30 32 34 36 37 38 39 40 42 44 46 47 45 43
30 33 37 35 33 33 33 32 30 30 28 25 24 27 30 33 34 34 36 37 38 39 41 43 44 44 42
33 37 37 34 34 32 31 30 30 26 25 26 25 24 26 29 31 32 34 34 35 37 39 40 42 43 40
39 39 33 37 35 34 31 31 28 24 23 25 30 32 28 27 30 30 31 34 35 36 37 38 42 43 42
39 33 35 36 35 34 32 30 25 21 22 26 29 30 32 32 29 31 33 35 36 37 37 40 42 44 44
31 34 39 34 35 32 32 27 22 22 23 25 27 30 32 33 35 35 35 37 39 40 40 40 41 42 40
33 38 35 34 33 32 29 24 19 19 23 25 26 28 31 35 38 39 42 40 41 42 41 41 42 43 41
35 32 33 31 29 27 25 16 15 21 22 23 24 26 29 33 37 38 39 41 41 43 43 41 40 42 39
28 29 26 27 26 23 15 11 19 19 21 22 24 26 29 34 35 37 39 40 40 43 43 40 38 41 40
23 23 24 22 22 14 9 16 18 19 21 22 24 25 27 26 33 38 37 39 40 40 43 44 41 39 38
20 21 20 19 13 8 13 15 17 18 21 24 27 30 31 32 30 35 40 40 41 41 43 43 44 42 40
Wind_Direction
278 284 294 301 304 306 309 311 315 321 323 323 321 322 324 324 324 325 326 326 327 329 330 331 332 331 330
278 286 294 298 302 305 307 311 316 321 321 319 322 322 323 323 327 326 326 328 330 331 333 332 332 332 330
278 285 292 297 301 306 307 312 318 320 319 318 321 321 324 326 328 327 329 331 331 331 333 332 331 333 332
277 285 291 296 300 302 305 313 318 319 318 318 320 323 325 326 327 328 330 331 332 332 332 332 332 332 330
279 284 290 293 301 303 307 313 317 319 318 318 319 322 322 324 327 328 330 330 332 332 332 330 329 330 329
277 282 287 296 300 301 307 314 317 316 315 316 319 321 322 325 327 328 330 332 333 332 331 329 327 330 328
275 278 289 293 296 300 309 312 314 315 314 315 318 321 323 325 327 329 330 332 334 333 331 328 327 328 326
270 279 290 290 295 301 310 312 313 312 313 313 316 319 322 323 326 330 331 335 337 334 332 330 328 327 325
272 279 288 288 295 306 308 309 309 310 310 311 314 318 321 323 327 332 336 339 339 340 339 335 328 326 327
275 282 283 288 298 305 306 306 305 307 309 314 319 320 326 332 333 337 340 342 344 345 342 336 333 332 333
277 276 281 290 301 303 302 301 302 306 316 318 317 322 327 331 338 339 341 340 341 342 343 343 340 338 335
272 271 280 295 300 300 298 295 291 299 314 313 321 325 328 331 335 337 339 339 338 339 343 343 342 341 336
268 270 290 294 296 299 294 289 300 316 311 319 326 329 330 332 334 336 337 339 337 337 341 344 342 340 340
278 287 293 291 295 288 285 294 314 305 314 320 325 327 331 333 331 335 335 335 336 335 338 340 342 340 342
282 288 287 288 286 285 280 308 297 307 315 321 325 330 334 332 331 331 334 335 335 334 333 337 342 340 342
281 282 284 284 283 270 302 292 301 310 317 319 323 327 329 332 330 330 333 332 334 333 333 336 340 342 342
278 280 280 278 258 288 285 294 304 311 315 319 323 326 329 332 337 332 332 334 334 335 334 337 338 340 341